FW2442 Weather Reports


time (UTC)temp
F
wind
direction
speed
knots
gust
knots
rain 1hr
in
rain 24hr
in
rain mn
in
humidity
%
barometer
mb
20260906051518 60 300 12.2 22.6 0.00 0.21 0.00 86 1018.2
20260906050521 60 282 14.8 22.6 0.00 0.21 0.00 89 1018.2
20260906045539 59 276 8.7 12.2 0.00 0.21 0.00 91 1017.9
20260906044537 58 292 9.6 18.2 0.00 0.21 0.00 92 1018.0
20260906043521 58 299 13.9 20.0 0.00 0.21 0.00 91 1018.1
20260906042523 59 320 12.2 18.2 0.00 0.21 0.00 90 1018.0
20260906041521 59 299 9.6 18.2 0.00 0.21 0.00 90 1017.6
20260906040521 58 239 8.7 14.8 0.00 0.21 0.00 91 1017.1
20260906035518 58 240 8.7 11.3 0.00 0.21 0.00 91 1017.0
20260906034521 58 177 5.2 7.8 0.00 0.21 0.00 91 1016.8
20260906033539 58 173 7.0 10.4 0.00 0.21 0.00 90 1016.8
20260906032521 58 187 4.3 7.0 0.00 0.21 0.00 90 1016.6
20260906031519 58 205 2.6 4.3 0.00 0.21 0.00 90 1016.6
20260906030522 58 256 6.1 10.4 0.00 0.21 0.00 90 1016.6
20260906025520 59 301 3.5 6.1 0.00 0.21 0.00 90 1016.5
20260906024525 59 294 4.3 7.0 0.00 0.21 0.00 90 1016.5
20260906023519 59 288 3.5 6.1 0.00 0.21 0.00 91 1016.4
20260906022517 59 278 6.1 12.2 0.00 0.21 0.00 91 1016.4
20260906021519 59 278 7.0 9.6 0.00 0.21 0.00 91 1016.5
20260906020521 59 227 7.0 14.8 0.00 0.21 0.00 91 1016.5
20260906015521 59 268 7.0 11.3 0.00 0.21 0.00 91 1016.5
20260906014522 59 273 12.2 17.4 0.00 0.21 0.00 92 1016.6
20260906013519 59 272 11.3 14.8 0.00 0.21 0.00 93 1016.6
20260906012521 59 276 8.7 12.2 0.00 0.21 0.00 92 1016.6
20260906011520 59 270 7.0 11.3 0.00 0.21 0.00 92 1016.5
20260906010519 59 274 7.0 9.6 0.00 0.21 0.00 92 1016.6
20260906005519 60 264 6.1 9.6 0.00 0.21 0.00 92 1016.4
20260906004521 60 237 7.8 13.0 0.00 0.21 0.00 91 1016.6
20260906003520 60 242 7.0 9.6 0.00 0.21 0.00 91 1016.7
20260906002520 60 266 10.4 17.4 0.00 0.21 0.00 92 1016.8
20260906001540 60 294 8.7 12.2 0.00 0.21 0.00 92 1016.8
20260906000523 60 274 5.2 7.8 0.00 0.21 0.00 91 1016.8
20260905235521 61 282 4.3 7.8 0.00 0.21 0.00 91 1016.9
20260905234519 61 261 3.5 7.0 0.00 0.21 0.00 90 1016.8
20260905233519 61 195 5.2 8.7 0.00 0.21 0.00 90 1016.7
20260905232520 61 235 6.1 9.6 0.00 0.21 0.00 90 1017.0
20260905231519 61 213 6.1 12.2 0.00 0.21 0.00 89 1017.1
20260905230521 62 229 6.1 11.3 0.00 0.21 0.00 89 1017.0
20260905225519 62 257 6.1 9.6 0.00 0.21 0.00 89 1017.1
20260905224539 62 254 12.2 17.4 0.00 0.21 0.00 89 1017.1
20260905223521 62 268 12.2 16.5 0.00 0.21 0.00 90 1017.1
20260905222521 61 265 12.2 22.6 0.00 0.21 0.00 90 1017.1
20260905221519 61 256 16.5 22.6 0.00 0.21 0.00 90 1017.0
20260905220517 61 294 16.5 24.3 0.00 0.21 0.00 91 1017.0
20260905215540 61 279 10.4 14.8 0.00 0.21 0.00 92 1016.9
20260905214521 61 285 10.4 16.5 0.00 0.21 0.00 92 1016.8
20260905213519 61 276 12.2 15.6 0.00 0.21 0.00 91 1016.7
20260905212601 61 273 13.9 16.5 0.00 0.21 0.00 92 1016.6
20260905211559 61 276 13.9 18.2 0.00 0.21 0.00 92 1016.4
20260905210601 61 269 13.9 18.2 0.00 0.21 0.00 93 1016.5
20260905205519 61 293 12.2 16.5 0.00 0.21 0.21 93 1016.3
20260905204521 61 279 12.2 15.6 0.00 0.21 0.21 93 1016.3
20260905203521 61 283 11.3 13.9 0.00 0.21 0.21 93 1016.2
20260905202522 61 274 7.8 9.6 0.00 0.21 0.21 93 1016.1
20260905201520 61 279 7.8 9.6 0.00 0.21 0.21 93 1015.9
20260905200522 61 270 9.6 13.0 0.00 0.21 0.21 92 1015.9
20260905195519 62 276 5.2 7.8 0.00 0.21 0.21 92 1015.9
20260905194521 62 277 10.4 14.8 0.00 0.21 0.21 92 1015.9
20260905193519 61 305 7.8 11.3 0.00 0.21 0.21 92 1015.8
20260905192521 61 293 10.4 18.2 0.00 0.21 0.21 91 1015.9
20260905191519 61 315 11.3 18.2 0.00 0.21 0.21 92 1015.6
20260905190521 62 306 7.8 16.5 0.00 0.21 0.21 92 1015.6
20260905185519 62 285 12.2 20.9 0.00 0.21 0.21 92 1015.9
20260905183521 62 287 12.2 17.4 0.00 0.21 0.21 94 1015.7
20260905182519 62 291 8.7 13.0 0.00 0.21 0.21 94 1015.7
20260905181539 62 304 12.2 21.7 0.01 0.21 0.21 95 1015.6
20260905180519 62 320 11.3 15.6 0.05 0.21 0.21 95 1015.5
20260905175519 62 326 14.8 20.0 0.21 0.21 0.21 95 1015.3
20260905174521 62 340 13.0 20.0 0.21 0.21 0.21 94 1015.2
20260905173519 63 326 12.2 24.3 0.21 0.21 0.21 94 1015.1
20260905172521 63 336 18.2 29.5 0.21 0.21 0.21 92 1014.8
20260905171520 64 314 24.3 37.4 0.20 0.20 0.20 91 1014.4
20260905170522 65 306 35.6 61.7 0.16 0.16 0.16 85 1014.5
20260905165540 67 325 20.0 36.5 0.00 0.00 0.00 78 1015.2
20260905164519 69 324 27.8 41.7 0.00 0.00 0.00 69 1014.7
20260905163540 70 321 14.8 28.7 0.00 0.00 0.00 61 1014.1
20260905162522 71 342 14.8 26.1 0.00 0.00 0.00 60 1013.8
20260905161520 71 355 20.0 37.4 0.00 0.00 0.00 60 1013.5
20260905160520 71 340 20.0 40.0 0.00 0.00 0.00 59 1013.6
20260905155519 71 333 26.9 38.2 0.00 0.00 0.00 58 1013.3
20260905154541 72 340 28.7 40.8 0.00 0.00 0.00 57 1013.4
20260905153519 72 329 26.1 40.0 0.00 0.00 0.00 56 1013.4
20260905152540 73 320 33.0 46.9 0.00 0.00 0.00 55 1013.3
20260905151520 73 333 24.3 33.0 0.00 0.00 0.00 56 1013.0
20260905150522 73 327 25.2 45.2 0.00 0.00 0.00 55 1012.8
20260905145520 74 324 26.1 54.7 0.00 0.00 0.00 56 1012.6
20260905144522 75 332 31.3 46.9 0.00 0.00 0.00 56 1012.3
20260905143520 74 329 29.5 42.6 0.00 0.00 0.00 59 1012.1
20260905142522 76 329 28.7 40.8 0.00 0.00 0.00 57 1012.1
20260905141520 78 326 30.4 40.0 0.00 0.00 0.00 52 1012.2
20260905140521 81 320 32.2 46.9 0.00 0.00 0.00 50 1011.7
20260905135519 84 328 29.5 46.9 0.00 0.00 0.00 49 1011.2
20260905134521 86 332 31.3 54.7 0.00 0.00 0.00 46 1011.0
20260905133520 89 293 13.0 21.7 0.00 0.00 0.00 41 1010.5
20260905132522 90 277 17.4 24.3 0.00 0.00 0.00 39 1010.3
20260905131520 91 261 17.4 24.3 0.00 0.00 0.00 38 1010.2
20260905130522 91 274 15.6 22.6 0.00 0.00 0.00 39 1010.2
20260905125520 89 259 12.2 17.4 0.00 0.00 0.00 39 1010.4
20260905124521 89 245 14.8 26.1 0.00 0.00 0.00 39 1010.5
20260905123519 91 245 21.7 31.3 0.00 0.00 0.00 38 1010.5
20260905122541 91 225 22.6 28.7 0.00 0.00 0.00 38 1010.7
20260905121519 90 223 23.5 33.0 0.00 0.00 0.00 38 1010.7
20260905120521 92 214 19.1 29.5 0.00 0.00 0.00 37 1010.9
20260905115519 91 221 17.4 24.3 0.00 0.00 0.00 39 1010.9
20260905114520 90 212 10.4 21.7 0.00 0.00 0.00 40 1011.0
20260905113516 89 214 13.0 20.0 0.00 0.00 0.00 42 1011.1
20260905112521 87 198 11.3 14.8 0.00 0.00 0.00 43 1011.2
20260905111520 88 215 14.8 22.6 0.00 0.00 0.00 42 1011.3
20260905110542 87 211 14.8 19.1 0.00 0.00 0.00 44 1011.2
20260905105519 87 208 22.6 30.4 0.00 0.00 0.00 42 1011.1
20260905104541 87 190 15.6 24.3 0.00 0.00 0.00 43 1011.2
20260905103520 87 217 20.0 26.9 0.00 0.00 0.00 43 1011.3
20260905102517 87 229 20.9 26.9 0.00 0.00 0.00 44 1011.4
20260905101520 86 220 22.6 38.2 0.00 0.00 0.00 43 1011.6
20260905100516 87 200 31.3 41.7 0.00 0.00 0.00 42 1011.5
20260905095521 87 214 23.5 33.0 0.00 0.00 0.00 42 1011.6
20260905094541 88 232 20.0 27.8 0.00 0.00 0.00 42 1011.6
20260905093519 88 219 24.3 36.5 0.00 0.00 0.00 42 1011.7
20260905092520 86 198 22.6 33.9 0.00 0.00 0.00 43 1011.7
20260905085536 86 202 25.2 39.1 0.00 0.00 0.00 45 1012.1
20260905084518 85 202 25.2 41.7 0.00 0.00 0.00 46 1012.1
20260905083537 84 198 29.5 43.4 0.00 0.00 0.00 46 1012.2
20260905082522 83 204 26.1 31.3 0.00 0.00 0.00 48 1012.3
20260905081519 83 200 24.3 33.0 0.00 0.00 0.00 48 1012.4
20260905080517 82 196 20.9 29.5 0.00 0.00 0.00 50 1012.5
20260905075520 81 206 26.1 37.4 0.00 0.00 0.00 50 1012.7
20260905074517 81 199 27.8 38.2 0.00 0.00 0.00 50 1012.7
20260905073516 80 204 27.8 35.6 0.00 0.00 0.00 51 1012.8
20260905072517 80 188 26.9 36.5 0.00 0.00 0.00 51 1012.9
20260905071537 79 204 24.3 37.4 0.00 0.00 0.00 53 1012.9
20260905070518 78 204 24.3 31.3 0.00 0.00 0.00 54 1012.9
20260905065518 78 188 23.5 32.2 0.00 0.00 0.00 55 1013.0
20260905064520 77 199 24.3 36.5 0.00 0.00 0.00 56 1013.1
20260905063516 75 197 26.9 32.2 0.00 0.00 0.00 58 1013.1
20260905062540 75 199 23.5 34.8 0.00 0.00 0.00 60 1013.0
20260905061516 74 210 22.6 28.7 0.00 0.00 0.00 61 1013.1
20260905060536 73 197 21.7 28.7 0.00 0.00 0.00 61 1013.1
20260905055537 72 201 12.2 19.1 0.00 0.00 0.00 62 1013.1
20260905054516 71 202 8.7 15.6 0.00 0.00 0.00 63 1013.2
20260905053517 71 188 10.4 14.8 0.00 0.00 0.00 64 1013.2
20260905052521 71 166 7.8 13.0 0.00 0.00 0.00 64 1013.2